TimeEST,TemperatureF,Dew PointF,Humidity,Sea Level PressureIn,VisibilityMPH,Wind Direction,Wind SpeedMPH,Gust SpeedMPH,PrecipitationIn,Events,Conditions,WindDirDegrees,DateUTC
12:52 AM,39.0,32.0,76,30.27,10.0,North,9.2,-,N/A,,Overcast,360,2012-11-28 05:52:00
1:52 AM,39.9,32.0,73,30.27,10.0,North,9.2,-,N/A,,Overcast,350,2012-11-28 06:52:00
2:52 AM,39.9,30.9,70,30.29,10.0,North,9.2,-,N/A,,Overcast,360,2012-11-28 07:52:00
3:52 AM,39.9,30.0,68,30.28,10.0,North,8.1,-,N/A,,Overcast,10,2012-11-28 08:52:00
4:52 AM,39.0,30.0,70,30.27,10.0,NNW,5.8,-,N/A,,Overcast,330,2012-11-28 09:52:00
5:52 AM,39.0,28.0,65,30.30,10.0,NNW,9.2,-,N/A,,Overcast,330,2012-11-28 10:52:00
6:52 AM,39.0,24.1,55,30.32,10.0,NNW,8.1,-,N/A,,Overcast,340,2012-11-28 11:52:00
7:52 AM,37.9,24.1,57,30.32,10.0,NNE,11.5,-,N/A,,Mostly Cloudy,20,2012-11-28 12:52:00
8:52 AM,41.0,25.0,53,30.33,10.0,NNE,8.1,-,N/A,,Mostly Cloudy,30,2012-11-28 13:52:00
9:52 AM,42.1,24.1,49,30.34,10.0,NE,4.6,-,N/A,,Mostly Cloudy,40,2012-11-28 14:52:00
10:52 AM,44.1,25.0,47,30.32,10.0,NW,6.9,-,N/A,,Scattered Clouds,320,2012-11-28 15:52:00
11:52 AM,46.0,24.1,42,30.31,10.0,NNW,16.1,-,N/A,,Scattered Clouds,330,2012-11-28 16:52:00
12:52 PM,46.9,25.0,42,30.28,10.0,NW,8.1,16.1,N/A,,Scattered Clouds,310,2012-11-28 17:52:00
1:52 PM,48.9,24.1,38,30.27,10.0,West,12.7,17.3,N/A,,Scattered Clouds,280,2012-11-28 18:52:00
2:52 PM,48.9,19.0,31,30.27,10.0,NW,13.8,26.5,N/A,,Partly Cloudy,320,2012-11-28 19:52:00
3:52 PM,48.0,18.0,30,30.27,10.0,West,10.4,-,N/A,,Clear,280,2012-11-28 20:52:00
4:52 PM,46.9,18.0,32,30.29,10.0,WNW,5.8,-,N/A,,Clear,300,2012-11-28 21:52:00
5:52 PM,45.0,18.0,34,30.30,10.0,WNW,11.5,-,N/A,,Clear,290,2012-11-28 22:52:00
6:52 PM,44.1,19.0,37,30.33,10.0,WNW,6.9,-,N/A,,Clear,300,2012-11-28 23:52:00
7:52 PM,44.1,19.0,37,30.35,10.0,West,5.8,-,N/A,,Clear,280,2012-11-29 00:52:00
8:52 PM,42.1,19.9,41,30.37,10.0,West,6.9,-,N/A,,Clear,280,2012-11-29 01:52:00
9:52 PM,41.0,21.0,45,30.38,10.0,WNW,6.9,-,N/A,,Clear,290,2012-11-29 02:52:00
10:52 PM,39.9,21.0,47,30.39,10.0,South,5.8,-,N/A,,Clear,190,2012-11-29 03:52:00
11:52 PM,37.0,23.0,57,30.40,10.0,SSW,3.5,-,N/A,,Clear,210,2012-11-29 04:52:00